Regional Weather Roundup
Issued by NWS Upton, NY

Current Version | Previous Version | Text Only | Print | Product List | Glossary On
Versions: 1 2 3 4 5 6 7 8 9 10 11 12 13 14 15 16 17 18 19 20 21 22 23 24 25 26 27
000
ASUS41 KOKX 220308
RWROKX

REGIONAL WEATHER ROUNDUP
NATIONAL WEATHER SERVICE NEW YORK NY
1000 PM EST SAT JAN 21 2017

NOTE: "FAIR" INDICATES FEW OR NO CLOUDS BELOW 12,000 FEET WITH NO
SIGNIFICANT WEATHER AND/OR OBSTRUCTIONS TO VISIBILITY.

NYZ071-072-176-178-NJZ106-104-220400-
NEW YORK CITY METRO AREA

CITY           SKY/WX    TMP DP  RH WIND       PRES   REMARKS
Central Park   CLOUDY    44  44 100 W7        29.82R FOG
Wall St Helipt CLOUDY    45  44  97 W7        29.83R
LaGuardia APRT CLOUDY    48  44  86 SW5       29.80S FOG
Kennedy INTL   FOG       45  45 100 SW8       29.81F VSB 1/8
Breezy Point     N/A     43 N/A N/A SW5         N/A
Newark/Liberty FOG       45  44  97 SW9       29.81R VSB 1
Teterboro      CLOUDY    47  45  93 S3        29.80R FOG
$$

NYZ177-179-078>081-220400-
LONG ISLAND NEW YORK

CITY           SKY/WX    TMP DP  RH WIND       PRES   REMARKS
Jones Beach      N/A     41 N/A N/A SW2         N/A
Matinecock PT  NOT AVBL
Farmingdale    FOG       45  45 100 CALM      29.80F VSB 1/4
MacArthur/ISP  FOG       43  43 100 SW5       29.80S VSB 1/8
Shirley        FOG       42  42 100 SW6       29.81S VSB 1/4
Westhampton    FOG       41  41 100 SW6       29.82R VSB 1/4
Southampton    NOT AVBL
Bridgehampton  NOT AVBL
East Hampton   FOG       39  39  99 CALM      29.79S VSB 1/4
Montauk          N/A     40  40 100 CALM      29.80F
$$

NYZ052-065-067-220400-
HUDSON VALLEY

CITY           SKY/WX    TMP DP  RH WIND       PRES   REMARKS
White Plains   FOG       43  42  97 CALM      29.78S VSB 1/4
Newburgh       FOG       43  43 100 VRB5      29.79S VSB 1/8
Montgomery     FOG       43  42  97 SW7       29.78R VSB 1/4
Poughkeepsie   CLOUDY    43  42  97 CALM      29.78S
Albany         MOCLDY    42  39  89 CALM      29.77S
$$

NJZ001-105-106-008-010-013-015-019>022-104-220400-
NEW JERSEY

CITY           SKY/WX    TMP DP  RH WIND       PRES   REMARKS
Newark/Liberty FOG       45  44  97 SW9       29.81R VSB 1
Teterboro      CLOUDY    47  45  93 S3        29.80R FOG
Caldwell       FOG       45  44  97 SW3       29.81R VSB 1/2
Somerville     CLOUDY    45  44  97 CALM      29.79R FOG
Linden         CLOUDY    45  44  97 CALM      29.81R FOG
Sussex         FOG       43  43 100 CALM      29.80R VSB 1/2
Andover          N/A     42  42 100 CALM      29.80R
Trenton        FOG       45  45 100 CALM      29.81R VSB 1/2
Millville      FOG       45  45 100 CALM      29.83R VSB 1/4
Atlantic City  FOG       46  45  96 CALM      29.82R VSB 1/4
Wrightstown    FOG       45  44  98 CALM      29.79S VSB 1/2
Toms River     FOG       45  45 100 CALM      29.82S VSB 3/4
Belmar         FOG       44  44 100 W3        29.83R VSB 1/2
$$

PAZ047>061-062-071-220400-
EASTERN PENNSYLVANIA

CITY           SKY/WX    TMP DP  RH WIND       PRES   REMARKS
Philadelphia   FOG       46  45  96 CALM      29.82S VSB 3/4
Allentown      FOG       43  41  93 CALM      29.80S VSB 1/4
Scranton       FOG       42  42 100 CALM      29.78S VSB 1/2
$$

CTZ002-004>006-009-010-012-RIZ004-006-007-MAZ004-011-015-220400-
SOUTHERN NEW ENGLAND
 IN CT

CITY           SKY/WX    TMP DP  RH WIND       PRES   REMARKS
Bradley INTL   PTCLDY    39  37  92 SW5       29.77S
Hartford       PTCLDY    39  37  92 CALM      29.78S FOG
Danbury        CLOUDY    36  35  96 CALM      29.78F FOG
Wtrbury/Oxford   N/A     41  37  87 CALM      29.78S VSB 3/4
Bridgeport     FOG       41  39  93 SW7       29.79F VSB 1/4
Meriden        FOG       36  34  92 S3        29.78S VSB 3/4
New Haven      FOG       39  38  96 SW6       29.79S VSB 1/4 WCI  35
Chester        FOG       41  39  93 CALM      29.77F VSB 1/2
Groton         FOG       41  40  96 S6        29.79S VSB 1/4
Wilimantic     PTCLDY    37  36  96 CALM      29.78F FOG

 IN RI

CITY           SKY/WX    TMP DP  RH WIND       PRES   REMARKS
Providence     CLEAR     39  37  92 SW3       29.77F FOG
Block Island   NOT AVBL
Westerly       FOG       42  40  92 W5        29.79F VSB 1/4
 IN MA

CITY           SKY/WX    TMP DP  RH WIND       PRES   REMARKS
Boston         PTCLDY    49  43  80 W8        29.76S
Worcester      CLEAR     43  40  89 W9        29.75S
Westfield      PTCLDY    34  34 100 CALM      29.76F
Provincetown   CLOUDY    41  40  96 SW6       29.77S
Nantucket      FOG       41  39  93 W13       29.79F VSB 1/4
$$

ANZ330-335-338-340-345-350-353-355-220400-
COASTAL MARINE OBSERVATIONS


STATION/POSITION TIME  SKY/WX   TEMP    WIND        PRES    VSBY  WAVE
                                AIR SEA DIR/SP/G                  HT/PER
                 (UTC)          (F)     (DEG/KT/KT) (MB)    (MI)  (FT/S)
NY HARB ENTRANCE 0150            45 44  270/  4/  4 1009.5          3/13
20 S FIRE ISLAND 0150            44 45  260/  8/ 12 1009.5          3/11
GREAT SOUTH BAY  NOT AVBL
23 SSW MONTAUK P 0150            43 47  240/ 12/ 14 1009.8          4/11
15 E BARNEGAT LI 0230               47                N/A           3/11
HUDSON CANYON    0150            47 51              1009.9          5/11
KINGS POINT      0230            45 40              1008.5
EXECUTION ROCKS  0245            44     200/  4/  6   N/A
CENTRAL LI SOUND 0215            39     210/  4/  6   N/A           0
EASTERN LI SOUND NOT AVBL
ROBBINS REEF     0230            44     200/  4/  5 1009.1
$$


>>>>>>>>>>>>>>>>>>>>>>>>>>>> KEY <<<<<<<<<<<<<<<<<<<<<<<<<<<
>                                                          <
>     SKY/WX - Sky Condition/Present Weather               <
>     TMP    - Temperature in Fahrenheit                   <
>     DP     - Dew Point in Fahrenheit                     <
>     RH     - Relative Humidity in Percent                <
>     WIND   - Direction (from) and Speed in MPH           <
>     PRES   - Mean Sea Level Pressure (inches of Hg)      <
>     WCI    - Wind Chill Index                            <
>     VSB    - VISIBILITY IN MILES                         <
>     HX     - HEAT INDEX                                  <
>     TC     - TEMPERATURE IN CELSIUS                      <
>     VRB    - VARIABLE WIND DIRECTION                     <
>                                                          <
>>>>>>>>>>>>>>>>>>>>>>>>>>>> KEY <<<<<<<<<<<<<<<<<<<<<<<<<<<




USA.gov is the U.S. government's official web portal to all federal, state and local government web resources and services.